Simultaneous Nadir Overpasses (SNOs) Predictions

Prediction of SNOs between FY3D and METOP-A Satellite Orbit:

Table of predicted SNOs for the next 14.0 days since TLE Epoch: 6/22/2019
Index Date (FY3D) Time (FY3D) Lat,Lon (FY3D) SZA (FY3D ) Date (METOP-A) Time (METOP-A) Lat,Lon (METOP-A) SZA (METOP-A ) Distance(km) Time Diff (sec)
1 07/03/2019 09:38:43 75.10, 22.67 52.55 07/03/2019 09:39:50 75.08, 25.33 52.34 76.00 67
2 07/03/2019 10:29:25 -74.99,-169.67 127.59 07/03/2019 10:30:34 -74.97,-167.65 127.76 58.20 69
3 07/03/2019 11:20:06 74.81, -1.86 52.21 07/03/2019 11:21:18 74.77, -0.86 52.09 29.37 72
4 07/03/2019 12:10:49 -74.74, 165.65 127.87 07/03/2019 12:12:02 -74.66, 166.17 128.00 17.73 73
5 07/03/2019 13:01:31 74.61, -26.68 51.99 07/03/2019 13:02:43 74.60, -26.64 51.96 1.21 72
6 07/03/2019 13:52:15 -74.59, 140.69 128.04 07/03/2019 13:53:25 -74.59, 140.65 128.05 1.24 70
7 07/03/2019 14:43:00 74.60, -52.03 51.98 07/03/2019 14:44:05 74.59, -52.03 51.95 1.65 65
8 07/03/2019 15:33:44 -74.58, 115.34 128.04 07/03/2019 15:34:47 -74.57, 115.26 128.06 2.40 63
9 07/03/2019 16:24:29 74.59, -77.38 51.98 07/03/2019 16:25:27 74.57, -77.42 51.94 3.09 58
10 07/03/2019 17:15:13 -74.57, 89.99 128.04 07/03/2019 17:16:08 -74.60, 90.00 128.03 3.57 55
11 07/03/2019 18:05:58 74.58,-102.73 51.98 07/03/2019 18:06:48 74.60,-102.68 51.97 2.01 50
12 07/03/2019 18:56:42 -74.56, 64.64 128.05 07/03/2019 18:57:30 -74.58, 64.61 128.04 2.51 48
13 07/03/2019 19:47:27 74.58,-128.08 51.97 07/03/2019 19:48:10 74.58,-128.07 51.96 0.35 43
14 07/03/2019 20:38:11 -74.56, 39.29 128.05 07/03/2019 20:38:52 -74.57, 39.22 128.05 2.30 41
15 07/03/2019 21:28:56 74.57,-153.43 51.97 07/03/2019 21:29:32 74.56,-153.46 51.95 1.33 36
16 07/03/2019 22:19:40 -74.55, 13.94 128.05 07/03/2019 22:20:14 -74.55, 13.83 128.06 3.11 34
17 07/03/2019 23:10:25 74.56,-178.78 51.97 07/03/2019 23:10:54 74.54,-178.85 51.95 2.99 29
18 07/04/2019 00:01:10 -74.59, -11.54 128.00 07/04/2019 00:01:35 -74.58, -11.43 128.03 3.51 25
19 07/04/2019 00:51:54 74.55, 155.86 51.97 07/04/2019 00:52:15 74.57, 155.89 51.98 2.13 21
20 07/04/2019 01:42:39 -74.58, -36.89 128.00 07/04/2019 01:42:57 -74.56, -36.82 128.03 3.16 18
21 07/04/2019 02:33:23 74.55, 130.51 51.96 07/04/2019 02:33:37 74.55, 130.50 51.97 0.99 14
22 07/04/2019 03:24:07 -74.52, -62.11 128.06 07/04/2019 03:24:19 -74.54, -62.21 128.04 3.37 12
23 07/04/2019 04:14:52 74.54, 105.16 51.96 07/04/2019 04:14:59 74.53, 105.11 51.96 1.72 7
24 07/04/2019 05:05:37 -74.56, -87.59 128.01 07/04/2019 05:05:40 -74.57, -87.47 128.01 3.75 3
25 07/04/2019 05:56:21 74.53, 79.81 51.96 07/04/2019 05:56:21 74.52, 79.72 51.95 3.23 0
26 07/04/2019 06:47:06 -74.56,-112.94 128.01 07/04/2019 06:47:02 -74.55,-112.86 128.02 2.55 4
27 07/04/2019 07:37:50 74.52, 54.46 51.95 07/04/2019 07:37:42 74.55, 54.46 51.98 2.69 8
28 07/04/2019 08:28:35 -74.55,-138.29 128.02 07/04/2019 08:28:24 -74.53,-138.25 128.03 2.09 11
29 07/04/2019 09:19:19 74.51, 29.11 51.95 07/04/2019 09:19:04 74.53, 29.07 51.97 2.00 15
30 07/04/2019 10:10:04 -74.54,-163.65 128.02 07/04/2019 10:09:46 -74.52,-163.64 128.04 2.76 18
31 07/04/2019 11:00:48 74.51, 3.76 51.95 07/04/2019 11:00:26 74.51, 3.68 51.96 2.51 22
32 07/04/2019 11:51:33 -74.53, 171.00 128.02 07/04/2019 11:51:07 -74.55, 171.10 128.01 3.23 26
33 07/04/2019 12:42:16 74.50, -21.59 51.95 07/04/2019 12:41:47 74.49, -21.71 51.95 3.75 29
34 07/04/2019 13:33:01 -74.53, 145.65 128.02 07/04/2019 13:32:28 -74.53, 145.71 128.02 1.76 33
35 07/04/2019 14:23:45 74.49, -46.94 51.94 07/04/2019 14:23:08 74.52, -46.97 51.99 3.48 37
36 07/04/2019 15:14:30 -74.52, 120.30 128.03 07/04/2019 15:13:50 -74.51, 120.32 128.02 1.04 40
37 07/04/2019 16:05:14 74.48, -72.29 51.94 07/04/2019 16:04:30 74.50, -72.36 51.98 3.02 44
38 07/04/2019 16:55:59 -74.51, 94.95 128.03 07/04/2019 16:55:12 -74.49, 94.93 128.03 2.11 47
39 07/04/2019 17:46:43 74.48, -97.64 51.94 07/04/2019 17:45:52 74.48, -97.75 51.97 3.41 51
40 07/04/2019 18:37:28 -74.50, 69.60 128.03 07/04/2019 18:36:33 -74.52, 69.67 128.00 3.04 55
41 07/04/2019 19:28:13 74.52,-123.12 51.99 07/04/2019 19:27:13 74.51,-123.02 52.00 3.17 60
42 07/04/2019 20:18:57 -74.49, 44.25 128.03 07/04/2019 20:17:55 -74.50, 44.28 128.01 1.40 62
43 07/04/2019 21:09:42 74.51,-148.47 51.99 07/04/2019 21:08:35 74.50,-148.40 51.99 2.48 67
44 07/04/2019 22:00:26 -74.49, 18.90 128.04 07/04/2019 21:59:17 -74.48, 18.89 128.02 0.24 69
45 07/04/2019 22:51:11 74.50,-173.82 51.99 07/04/2019 22:49:57 74.48,-173.79 51.98 2.79 74
46 07/04/2019 23:41:54 -74.43, -6.32 128.09 07/04/2019 23:40:40 -74.42, -6.62 128.07 8.97 74
47 07/05/2019 00:32:35 74.25, 161.46 51.71 07/05/2019 00:31:23 74.26, 160.32 51.82 34.43 72
48 07/05/2019 01:23:18 -74.18, -31.05 128.37 07/05/2019 01:22:07 -74.15, -32.62 128.27 47.82 71
49 07/05/2019 02:13:58 73.94, 136.84 51.37 07/05/2019 02:12:51 73.94, 134.21 51.57 81.04 67
50 07/05/2019 03:04:41 -73.88, -55.68 128.71 07/05/2019 03:03:35 -73.84, -58.72 128.51 94.28 66




NCC Satellite Simultaneous Nadir Overpasses (SNOs) Prediction Service
